sat.trackr.live / text

‹ back to catalog

QIANFAN-165

NORAD 69382 · 2026-124A

PAYLOAD ACTIVE UNKNOWN

§ Identity

Operator
Country
PRC
Launch date
2026-06-04
Launch site
TAISC
Launch vehicle
Mass (kg)
RCS (m²)

External: N2YO · Heavens-Above · Gunter

§ Orbital elements

Epoch: 2026-09-20T03:46:04.242720Z

Period
106.59 min
Inclination
89.0070°
Eccentricity
0.0001947
Mean motion
13.51022194 rev/d
Perigee alt
1,067.1 km
Apogee alt
1,069.9 km
Semi-major
7,446.6 km
B*
1.3013e-4
RAAN
352.0575°
Arg perigee
120.8974°
Mean anomaly
239.2369°
Rev number
1,486

§ Raw data

QIANFAN-1651 69382U 26124A   26263.15699355  .00000096  00000+0  13013-3 0  99902 69382  89.0070 352.0575 0001947 120.8974 239.2369 13.51022194 14864

JSON: /api/v1/satellites/69382 · /tle

For live sub-satellite position, see the globe view (requires WebGL).

§ Visibility from observer

Set your observer location to see the next 7 days of passes ≥ 10°. The values pass through the URL so the page stays shareable.

No JS? Fill the form by hand. The geolocation button needs JavaScript.